www.pogodaiklimat.ru

Погода и климат >> Архив погоды >> Иран >> Решт


ПОГОДА в Реште

  • Прогноз погоды в Реште
  • Монитор погоды в Реште

АРХИВ ПОГОДЫ в Реште

Время (UTC), дата Ветер
(напр.,м/с)
 
Видим.   Явления Облачность Т
(С)
Тd
(С)
f
(%)
Тe
(С)
Тes
(С)
Комфортность P
(гПа)
Po
(гПа)
Тmin
(С)
Tmax
(С)
R
(мм)
R24
(мм)
S
(см)
18 11.09 ЮЗ 3 10 км 10/8 450 м
[Cb calv As op]
+17.8 +16.8 94 +18 +18 1022.6 1023.6
21 11.09 ЮЗ 4 4000 м слаб. дождь 10/8 450 м
[Cb calv As op]
+17.2 +16.9 98 +17 +17 1022.6 1023.6
00 12.09 Ю 3 4000 м дымка {дождь} 10/8 300 м
[Cb calv As op]
+16.8 +15.8 94 +17 +17 1021.8 1022.8 0.0
03 12.09 ЮЗ 2 7000 м дымка 10/8 300 м
[Cb calv As op]
+16.6 +15.6 94 +17 +17 1022.6 1023.6 +16.6
06 12.09 ЮЗ 4 7000 м дымка 10/8 300 м
[Cb calv As op]
+18.2 +16.5 90 +18 +19 1022.9 1023.9
09 12.09 ЮЗ 4 10 км 10/8 600 м
[Cb calv As op]
+19.2 +16.5 84 +21 +21 комфорт 1022.2 1023.3
12 12.09 Ю 2 8000 м дымка {дождь} 10/8 450 м
[Cb calv As op]
+17.4 +16.0 91 +18 +18 1021.8 1022.9 0.7
15 12.09 ЮВ 2 8000 м в посл. час дождь 10/8 450 м
[Cb calv As op]
+17.2 +15.8 91 +18 +18 1021.7 1022.7 +20.0
18 12.09 ЮВ 2 8000 м дымка {дождь} 10/6 600 м
[Sc As op]
+17.8 +15.0 84 +18 +18 1022.5 1023.5 0.4
21 12.09 СЗ 2 10 км 10/5 750 м
[Sc As op]
+17.6 +15.2 86 +18 +18 1021.8 1022.8
00 13.09 СВ 2 10 км 10/5 900 м
[Sc As op]
+17.2 +15.1 87 +18 +18 1021.6 1022.6
03 13.09 ЮВ 2 3000 м ливневой дождь 10/5 600 м
[Sc As op]
+17.0 +14.2 84 +17 +17 1021.2 1022.2 +17.0
06 13.09 Ю 3 10 км в посл. час дождь {ливн. осадки} 10/6 600 м
[Cb calv As op]
+17.4 +16.0 91 +17 +18 1021.9 1022.9 4
09 13.09 Ю 3 10 км в посл. час ливневой дождь 10/6 600 м
[Cb calv As op]
+18.8 +16.8 88 +20 +21 1021.1 1022.1
12 13.09 ЮЗ 3 10 км {ливн. осадки, дождь} 10/8 750 м
[Cb calv As op]
+19.6 +17.6 88 +22 +22 комфорт 1020.9 1021.9 3
15 13.09 штиль 0 10 км 10/6 900 м
[Sc As op]
+19.2 +15.8 81 +21 +21 комфорт 1021.4 1022.4 +20.0
18 13.09 З 3 10 км 10/6 900 м
[Sc As op]
+18.2 +16.5 90 +19 +19 1022.2 1023.2
21 13.09 штиль 0 10 км 10/5 750 м
[Sc As op]
+18.4 +16.0 86 +19 +19 1021.3 1022.3
00 14.09 штиль 0 10 км 10/6 750 м
[Sc As op]
+17.8 +15.8 88 +18 +18 1020.6 1021.6
03 14.09 штиль 0 10 км 9/3 750 м
[Sc Ac As]
+17.6 +16.2 91 +18 +18 1021.2 1022.2 +17.4
06 14.09 штиль 0 10 км 9/1 300 м
[Cu med, cong Ac As]
+22.0 +14.5 62 +25 +29 комфорт 1022.4 1023.4
09 14.09 СЗ 2 10 км 6/5 600 м
[Cu med, cong Ac und]
+23.4 +17.3 69 +29 +35 душно 1021.1 1022.2
12 14.09 штиль 0 10 км 9/3 600 м
[Cu med, cong Ac As]
+23.8 +16.6 64 +27 +30 жарко 1020.0 1021.0
15 14.09 штиль 0 10 км 9/5 600 м
[Sc Ac As]
+22.0 +18.2 79 +27 +27 душно 1019.9 1021.0 +25.0
18 14.09 штиль 0 10 км 8/3 600 м
[Sc Ac und]
+20.6 +17.7 83 +24 +24 комфорт 1020.0 1021.0
21 14.09 штиль 0 8000 м дымка ясно +17.8 +17.1 96 +18 +18 1019.4 1020.4
00 15.09 штиль 0 10 км ясно +16.6 +15.6 94 +16 +16 1018.4 1019.4
03 15.09 штиль 0 7000 м дымка 1/0 2000 м
[Ac trans]
+15.4 +15.0 97 +15 +15 1018.8 1019.8 +15.4
06 15.09 штиль 0 12 км 1/0
[Ac trans]
+23.2 +16.7 67 +28 +39 душно 1019.5 1020.6
09 15.09 С 3 12 км 5/1 900 м
[Cu hum Ac trans]
+26.6 +17.0 56 +31 +39 душно 1018.4 1019.4
12 15.09 СВ 2 10 км 6/4 750 м
[Cu hum Ac trans]
+26.0 +17.4 59 +30 +33 душно 1017.0 1018.0
15 15.09 С 3 10 км 3/0
[Ac und]
+22.4 +18.3 78 +28 +28 душно 1017.2 1018.2 +27.0
18 15.09 С 2 6000 м дымка 3/0
[Ac trans]
+20.0 +18.1 89 +24 +24 комфорт 1018.1 1019.1
21 15.09 штиль 0 4000 м дымка 3/0
[Ac trans]
+19.0 +18.4 96 +21 +21 комфорт 1019.2 1020.2
00 16.09 штиль 0 4000 м дымка 8/4 600 м
[Sc Ac und]
+20.6 +19.0 91 +24 +24 комфорт 1019.7 1020.7
03 16.09 штиль 0 6000 м дымка 9/6 300 м
[Cb calv Ac As]
+19.8 +18.8 94 +23 +23 комфорт 1020.4 1021.4 +19.0
06 16.09 ЮВ 2 10 км 6/3 750 м
[Sc Ac und]
+24.0 +19.3 75 +29 +33 душно 1020.7 1021.7
09 16.09 С 3 10 км 8/3 600 м
[Cu med, cong Ac As]
+26.0 +20.2 70 +32 +36 очень
душно
1017.3 1018.3
12 16.09 штиль 0 10 км 4/4 600 м
[Cu hum]
+27.4 +18.4 58 +32 +37 очень
душно
1014.6 1015.6
15 16.09 С 2 10 км 4/0 2000 м
[Ac As]
+23.4 +19.4 78 +30 +30 очень
душно
1013.0 1014.0 +27.6
18 16.09 штиль 0 10 км ясно +20.8 +19.2 91 +25 +25 комфорт 1012.7 1013.7
21 16.09 штиль 0 3000 м дымка 5/5 750 м
[Sc]
+20.0 +19.4 96 +23 +23 комфорт 1012.4 1013.4
00 17.09 штиль 0 3000 м дымка ясно +18.8 +18.2 96 +20 +20 1011.9 1012.9
03 17.09 штиль 0 6000 м дымка 3/0
[Ac lent]
+18.0 +17.7 98 +18 +18 1012.4 1013.4 +18.0
06 17.09 штиль 0 10 км 1/1 600 м
[Cu hum Ac lent]
+24.6 +20.3 77 +30 +40 очень
душно
1012.3 1013.3
09 17.09 СЗ 2 10 км 4/4 900 м
[Cu hum Ac lent]
+27.4 +20.1 64 +34 +42 очень
душно
1010.2 1011.2
12 17.09 С 2 10 км 1/1 1200 м
[Sc diur, vesp]
+27.6 +21.0 67 +35 +40 очень
душно
1007.9 1008.9
15 17.09 С 2 10 км 4/3 1500 м
[Sc diur, vesp Ac und]
+23.4 +19.7 80 +30 +30 очень
душно
1007.8 1008.8 +28.5
18 17.09 штиль 0 6000 м дымка 8/4 750 м
[Sc Ac As]
+22.0 +19.5 86 +28 +28 душно 1008.7 1009.6
21 17.09 штиль 0 5000 м дымка 3/0 2000 м
[Ac und]
+20.0 +19.4 96 +23 +23 комфорт 1008.9 1009.8
00 18.09 штиль 0 5000 м дымка 6/3 750 м
[Sc Ac As]
+21.4 +20.2 93 +27 +27 душно 1013.2 1014.2
03 18.09 штиль 0 5000 м дымка 5/0 2000 м
[Ac As]
+20.0 +19.4 96 +23 +23 комфорт 1014.8 1015.8 +20.0
06 18.09 штиль 0 10 км 3/0 2000 м
[Ac und]
+27.4 +19.8 63 +33 +42 очень
душно
1016.5 1017.5
09 18.09 С 3 10 км ясно +30.6 +14.2 37 +32 +44 жарко 1016.0 1017.0
12 18.09 С 2 10 км ясно +29.6 +14.9 41 +32 +38 душно 1015.4 1016.4
15 18.09 С 2 10 км ясно +25.0 +17.0 61 +29 +29 душно 1015.4 1016.4 +30.6

 

Местоположение метеостанции Решт (Иран): широта 37.20 долгота 49.63 высота над уровнем моря 37 м.

В архиве по умолчанию представлена погода в Реште за последнюю неделю. Архивные данные за месяц целиком и за предыдущие месяцы, начиная с января 2011 года, Вы можете получить, выбрав интересующий диапазон дат из раскрывающегося списка и нажав кнопку "Ввод!".


*Определитесь, кто Вы:
робот инопланетянин человек

Внимание! Время в таблицах - всемирное. Для получения местного времени необходимо прибавить поправку, которая равна 3.5 ч.

Смотрите также архив погоды в соседних городах и на ближайших метеорологических станциях:

Погода в Энзели (Иран) (33 км)
Погода в Рамсаре (Иран) (98 км)
Погода в Казвине (Иран) (111 км)
Погода в Зенджане (Иран) (117 км)
Погода в Астаре (Азербайджан) (154 км)
Погода в Ардебиле (Иран) (167 км)
Погода в Миане (Иран) (173 км)
Погода в Ноушехре (Иран) (177 км)
Погода в Лянкяране (Азербайджан) (184 км)
Погода в Серабе (Иран) (202 км)

Пояснения к столбцам:

Ветер - указаны скорость ветра в м/с - средняя за 10 мин, порывы в срок и между сроками (в фигурных скобках) и направление, откуда дует ветер: С - северный, СВ - северо-восточный, В - восточный, ЮВ - юго-восточный, Ю - южный, ЮЗ - юго-западный, З - западный, СЗ - северо-западный.
Видимость - горизонтальная дальность видимости в метрах или километрах. При видимости от 1 до 10 км при отсутствии осадков обычно наблюдается дымка, при ухудшении видимости до 1 км и менее - туман. В сухую погоду видимость может ухудшаться дымом, пылью или мглою.
Явления - указаны атмосферные явления, наблюдавшиеся в срок или в последний час перед сроком; фигурными скобками обозначены явления, наблюдавшиеся между сроками (за 1-3 часа до срока); квадратными скобками обозначены град или гололедные отложения с указанием их диаметра в мм.
Облачность - указаны через наклонную черту общая и нижняя облачность в баллах и высота нижней границы облаков в метрах; квадратными скобками обозначены формы облаков: Ci - перистые, Cs - перисто-слоистые, Cc - перисто-кучевые, Ac - высококучевые, As - высокослоистые, Sc - слоисто-кучевые, Ns - слоисто-дождевые, Cu - кучевые, Cb - кучево-дождевые. Подробнее классификацию облаков см. в Атласе облаков (PDF).
T - Температура воздуха - температура, измеренная на высоте 2 м над землей.
Td - Температура точки росы - температура, при понижении до которой содержащийся в воздухе водяной пар достигнет насыщения.
f - Относительная влажность воздуха - влажноcть воздуха, измеренная на высоте 2 м над землей.
Te - Эффективная температура - температура, которую ощущает одетый по сезону человек в тени. Характеристика душности погоды. При расчете учитывается влияние влажности воздуха и скорости ветра на теплоощущения человека.
Tes - Эффективная температура на солнце - температура, которую ощущает человек, с поправкой на солнечный нагрев. Характеристика знойности погоды. Зависит от высоты солнца над горизонтом, облачности и скорости ветра. Ночью, в пасмурную погоду, а также при ветре 12 м/с и более поправка равна нулю.
P - Атмосферное давление - приведенное к уровню моря атмосферное давление.
Po - Атмосферное давление - измеренное на уровне метеостанции атмосферное давление.
Tmin - Минимальная температура - минимум температуры воздуха на высоте 2 м над землей.
Tmax - Максимальная температура - максимум температуры воздуха на высоте 2 м над землей.
R - Количество осадков - Количество выпавших осадков за период времени, мм. При наведении курсора мыши на число - период времени, за который выпало указанное количество осадков.
R24 - Количество осадков - Количество выпавших осадков за 24 часа, мм.
S - Снежный покров - Высота снежного покрова, см. При наведении курсора мыши на число - состояние снежного покрова и степень покрытия местности в баллах.